Date String (YYYY-MM-DD hh:mm:ss) UTC,Instrument flags,absolute air pressure of the measurement (hPa),sample flow rate (lpm),inlet stack bypass flow (lpm),air temperature of the measurement (°C),ambient temperature measured by the external sensor (°C),aerosol sample conditioner tube jacket temperature (°C),OPC LED temperature (°C),internal box temperature (°C),relative humidity of the measurement (%),span deviation,mass concentration of particles derived from Lorenz-Mie calculation of OPC scattering (μg/m³),mass concentration of particles derived from Lorenz-Mie calculation of OPC scattering (μg/m³),mass concentration of particles derived from Lorenz-Mie calculation of OPC scattering (μg/m³)
DateTimeUTC,F1_M11,P_M11,Q1_M11,Q2_M11,T1_M11,T2_M11,T3_M11,T4_M11,T5_M11,U1_M11,ZSPAN_M11,X0_M11,X2_M11,X1_M11
2023-08-24 19:00:00,SystemResetWarning,0833.3,5.00,000.00,027.5,026.2,000.0,035.8,029.4,31.9,0001.9,0013.57,0007.23,0006.51
2023-08-24 19:01:00,SystemResetWarning,0833.3,4.99,000.00,027.6,026.1,000.0,035.7,029.4,31.7,0001.8,0014.04,0007.23,0006.50
2023-08-24 19:02:00,SystemResetWarning,0833.3,5.00,000.00,027.6,024.7,000.0,035.7,029.1,32.2,0002.0,0014.90,0007.25,0006.50
2023-08-24 19:03:00,SystemResetWarning,0833.3,5.00,000.00,027.5,024.1,000.0,035.6,029.0,32.6,0002.3,0015.10,0007.21,0006.48
2023-08-24 19:04:00,SystemResetWarning,0833.2,5.02,000.00,027.4,024.3,000.0,035.6,029.0,32.1,0002.4,0014.91,0007.17,0006.46
2023-08-24 19:05:00,SystemResetWarning,0833.2,5.00,000.00,027.4,024.7,000.0,035.7,029.0,32.1,0002.2,0014.15,0007.16,0006.47
2023-08-24 19:06:00,SystemResetWarning,0833.2,5.00,000.00,027.4,025.1,000.0,035.7,029.1,32.3,0001.9,0014.54,0007.23,0006.50
2023-08-24 19:07:00,SystemResetWarning,0833.3,5.00,000.00,027.5,025.6,000.0,035.7,029.3,31.9,0001.9,0014.39,0007.25,0006.52
2023-08-24 19:08:00,SystemResetWarning,0833.3,5.00,000.00,027.5,026.0,000.0,035.7,029.4,31.0,0001.9,0014.39,0007.27,0006.55
2023-08-24 19:09:00,SystemResetWarning,0833.3,4.99,000.00,027.6,026.0,000.0,035.7,029.4,30.6,0001.9,0015.10,0007.30,0006.57
2023-08-24 19:10:00,SystemResetWarning,0833.3,4.99,000.00,027.5,024.7,000.0,035.6,029.1,30.4,0001.8,0016.04,0007.37,0006.61
2023-08-24 19:11:00,SystemResetWarning,0833.2,5.01,000.00,027.5,024.0,000.0,035.6,028.9,30.0,0002.0,0016.34,0007.44,0006.65
2023-08-24 19:12:00,SystemResetWarning,0833.2,5.01,000.00,027.4,024.3,000.0,035.6,028.9,30.4,0001.9,0016.72,0007.46,0006.68
2023-08-24 19:13:00,SystemResetWarning,0833.2,4.99,000.00,027.4,024.7,000.0,035.6,029.0,31.3,0001.8,0016.03,0007.50,0006.72
2023-08-24 19:14:00,SystemResetWarning,0833.2,5.00,000.00,027.4,025.1,000.0,035.7,029.2,31.9,0001.6,0015.90,0007.57,0006.78
2023-08-24 19:15:00,SystemResetWarning,0833.2,5.01,000.00,027.5,025.6,000.0,035.7,029.3,32.0,0001.8,0015.42,0007.63,0006.83
2023-08-24 19:16:00,SystemResetWarning,0833.2,4.99,000.00,027.5,026.0,000.0,035.7,029.4,31.1,0001.5,0015.25,0007.67,0006.86
2023-08-24 19:17:00,SystemResetWarning,0833.2,4.99,000.00,027.6,025.9,000.0,035.7,029.4,31.1,0001.4,0014.82,0007.68,0006.86
2023-08-24 19:18:00,SystemResetWarning,0833.2,4.99,000.00,027.5,024.6,000.0,035.7,029.1,31.0,0001.3,0014.59,0007.66,0006.86
2023-08-24 19:19:00,SystemResetWarning,0833.2,5.01,000.00,027.5,023.9,000.0,035.6,028.9,30.9,0001.5,0015.55,0007.63,0006.84
2023-08-24 19:20:00,SystemResetWarning,0833.2,5.02,000.00,027.4,024.2,000.0,035.6,028.9,31.5,0001.6,0015.26,0007.66,0006.82
2023-08-24 19:21:00,SystemResetWarning,0833.2,4.99,000.00,027.4,024.6,000.0,035.6,029.0,31.6,0001.3,0014.59,0007.65,0006.81
2023-08-24 19:22:00,SystemResetWarning,0833.2,5.00,000.00,027.4,025.1,000.0,035.7,029.1,31.4,0001.0,0014.15,0007.60,0006.78
2023-08-24 19:23:00,SystemResetWarning,0833.1,5.00,000.00,027.5,025.6,000.0,035.7,029.3,31.4,0001.2,0013.43,0007.59,0006.74
2023-08-24 19:24:00,SystemResetWarning,0833.2,4.99,000.00,027.5,026.0,000.0,035.8,029.4,31.7,0000.8,0013.46,0007.54,0006.71
2023-08-24 19:25:00,SystemResetWarning,0833.1,4.99,000.00,027.6,025.9,000.0,035.7,029.4,31.8,0000.9,0013.51,0007.50,0006.68
2023-08-24 19:26:00,SystemResetWarning,0833.2,4.99,000.00,027.5,024.6,000.0,035.6,029.1,31.9,0000.4,0013.88,0007.50,0006.66
2023-08-24 19:27:00,SystemResetWarning,0833.1,5.01,000.00,027.5,024.0,000.0,035.6,028.9,31.8,0000.4,0014.01,0007.49,0006.66
2023-08-24 19:28:00,SystemResetWarning,0833.0,5.00,000.00,027.4,024.3,000.0,035.6,028.9,31.5,0000.6,0014.42,0007.44,0006.66
2023-08-24 19:29:00,SystemResetWarning,0833.1,4.99,000.00,027.4,024.7,000.0,035.6,029.0,31.1,0000.5,0014.47,0007.50,0006.66
2023-08-24 19:30:00,SystemResetWarning,0833.1,5.00,000.00,027.4,025.1,000.0,035.7,029.2,31.5,0000.8,0013.78,0007.57,0006.68
2023-08-24 19:31:00,SystemResetWarning,0833.4,5.00,000.00,027.5,025.6,000.0,035.7,029.3,31.3,0000.6,0013.95,0007.59,0006.68
2023-08-24 19:32:00,SystemResetWarning,0833.1,5.01,000.00,027.5,026.0,000.0,035.7,029.4,30.4,0000.8,0013.96,0007.63,0006.68
2023-08-24 19:33:00,SystemResetWarning,0833.0,4.98,000.00,027.6,026.0,000.0,035.7,029.4,30.4,0000.8,0014.63,0007.63,0006.69
2023-08-24 19:34:00,SystemResetWarning,0833.1,5.00,000.00,027.5,024.7,000.0,035.6,029.1,30.5,0000.5,0015.08,0007.67,0006.70
2023-08-24 19:35:00,SystemResetWarning,0833.0,5.01,000.00,027.5,024.1,000.0,035.6,028.9,30.5,0000.6,0014.65,0007.70,0006.69
2023-08-24 19:36:00,SystemResetWarning,0832.9,5.01,000.00,027.4,024.3,000.0,035.6,028.9,31.4,0000.2,0014.63,0007.71,0006.69
2023-08-24 19:37:00,SystemResetWarning,0832.9,4.99,000.00,027.4,024.7,000.0,035.6,029.0,31.6,0000.5,0014.89,0007.65,0006.66
2023-08-24 19:38:00,SystemResetWarning,0832.9,5.00,000.00,027.4,025.1,000.0,035.7,029.1,31.8,0000.7,0015.13,0007.63,0006.63
2023-08-24 19:39:00,SystemResetWarning,0833.0,5.00,000.00,027.5,025.6,000.0,035.7,029.3,32.0,0000.6,0014.64,0007.59,0006.60
2023-08-24 19:40:00,SystemResetWarning,0833.2,5.01,000.00,027.5,026.0,000.0,035.7,029.4,31.5,0000.6,0014.49,0007.53,0006.57
2023-08-24 19:41:00,SystemResetWarning,0833.1,5.00,000.00,027.6,026.3,000.0,035.7,029.5,31.5,0000.9,0014.32,0007.44,0006.52
2023-08-24 19:42:00,SystemResetWarning,0833.1,4.98,000.00,027.6,025.5,000.0,035.7,029.3,31.9,0000.9,0014.24,0007.36,0006.47
2023-08-24 19:43:00,SystemResetWarning,0832.9,5.01,000.00,027.5,024.2,000.0,035.6,029.0,31.7,0001.0,0014.18,0007.27,0006.44
2023-08-24 19:44:00,SystemResetWarning,0833.0,5.01,000.00,027.5,024.1,000.0,035.6,028.9,31.5,0001.0,0013.65,0007.20,0006.41
2023-08-24 19:45:00,SystemResetWarning,0832.9,5.00,000.00,027.4,024.5,000.0,035.6,029.0,31.9,0001.2,0013.27,0007.15,0006.39
2023-08-24 19:46:00,SystemResetWarning,0832.9,5.00,000.00,027.4,024.9,000.0,035.7,029.1,32.2,0001.7,0013.99,0007.17,0006.40
2023-08-24 19:47:00,SystemResetWarning,0832.9,5.00,000.00,027.5,025.4,000.0,035.7,029.2,31.7,0001.9,0014.08,0007.15,0006.40
2023-08-24 19:48:00,SystemResetWarning,0833.0,5.00,000.00,027.5,025.8,000.0,035.7,029.3,32.0,0002.0,0013.47,0007.20,0006.41
2023-08-24 19:49:00,SystemResetWarning,0833.1,5.00,000.00,027.6,026.1,000.0,035.8,029.4,32.2,0002.3,0013.02,0007.20,0006.42
2023-08-24 19:50:00,SystemResetWarning,0833.0,4.98,000.00,027.6,025.4,000.0,035.7,029.2,31.6,0002.4,0013.19,0007.27,0006.43
2023-08-24 19:51:00,SystemResetWarning,0833.0,5.00,000.00,027.5,024.2,000.0,035.6,028.9,30.9,0002.5,0013.40,0007.28,0006.43
2023-08-24 19:52:00,SystemResetWarning,0832.9,5.01,000.00,027.4,024.1,000.0,035.6,028.9,30.9,0002.4,0014.21,0007.33,0006.45
2023-08-24 19:53:00,SystemResetWarning,0833.0,4.99,000.00,027.4,024.5,000.0,035.6,029.0,31.3,0002.4,0014.33,0007.36,0006.48
2023-08-24 19:54:00,SystemResetWarning,0832.9,5.00,000.00,027.4,024.9,000.0,035.7,029.1,31.5,0002.3,0014.12,0007.36,0006.49
2023-08-24 19:55:00,SystemResetWarning,0832.9,5.00,000.00,027.4,025.4,000.0,035.7,029.2,31.6,0002.5,0014.99,0007.44,0006.52
2023-08-24 19:56:00,SystemResetWarning,0832.9,5.00,000.00,027.5,025.8,000.0,035.7,029.3,32.0,0002.5,0014.92,0007.45,0006.53
2023-08-24 19:57:00,SystemResetWarning,0832.9,5.00,000.00,027.6,026.2,000.0,035.8,029.4,30.9,0002.4,0014.24,0007.40,0006.51
2023-08-24 19:58:00,SystemResetWarning,0833.1,4.98,000.00,027.6,025.4,000.0,035.7,029.3,31.1,0002.2,0014.26,0007.40,0006.51
2023-08-24 19:59:00,SystemResetWarning,0833.1,5.00,000.00,027.5,024.2,000.0,035.6,029.0,31.6,0001.7,0014.47,0007.45,0006.53
